[[{"header":{"parameterUnit":"m.s-1","parameterCategory":1,"la1":30.2991,"la2":30.254,"lo1":-89.0895,"lo2":-89.0444,"dy":0.0017,"dx":0.0017,"nx":28,"ny":28,"refTime":"2025-01-13T03:00:00:Z","depth":0,"parameterNumber":2,"parameterNumberName":"U-component_of_WINDS"},"data":[0,0,0,0,0,0,0,0,0,0,0,0,0,0,0,0,0,0,0,0,0,0,0,0,0,0,0,0,0,0,0,0,0,0,0,0,0,0,0,0,0,0,0,0,0,0,0,0,0,0,0,0,0,0,0,0,0,0,-5.9832,-5.9834,0,-5.9947,-5.9948,-5.995,-5.9804,-5.9799,-5.9793,-5.9788,-5.9912,-5.992,-5.9928,0,0,0,0,0,0,0,0,0,0,0,0,0,-5.9492,-5.9499,-5.9832,-5.9834,-5.9835,-5.9947,-5.9949,-5.995,-5.9805,-5.9798,-5.9792,-5.9786,-5.9909,-5.9919,-5.9929,0,0,0,0,0,0,0,0,0,0,0,0,0,-5.9627,-5.9501,-5.9832,-5.9776,-5.9772,-5.9947,-5.9949,-5.9951,-5.9806,-5.9798,-5.979,-5.9783,-5.9906,-5.9918,-5.993,-6.0167,0,0,-5.9968,-5.9973,0,0,0,0,0,0,0,0,-5.962,-5.964,-5.9783,-5.978,-5.9776,-5.9853,-5.9874,-6.0023,-5.9808,-5.9794,-5.9788,-5.9779,-5.9899,-5.9911,-5.9951,-6.0172,-6.0178,-5.9969,-5.9976,-5.9982,-5.9985,0,0,0,0,0,0,0,-5.961,-5.9634,-5.9878,-5.9785,-5.9781,-5.9747,-5.9757,-5.9901,-5.989,-5.9794,-5.9784,-5.9799,-5.9896,-5.9939,-5.9953,-6.0179,-5.9969,-5.998,-5.9987,-5.9992,-6.0602,-6.061,0,0,0,0,0,0,-5.9607,-5.9627,-5.9874,-5.9881,-5.9676,-5.9759,-5.9771,-5.9836,-5.9888,-5.9888,-5.9806,-5.9792,-5.9922,-5.9938,-5.9956,-6.0237,-5.9982,-5.9993,-6.0,-6.0593,-6.0604,-6.0613,0,0,0,0,0,0,-5.96,-5.963,-5.9869,-5.9751,-5.9779,-5.9774,-5.9849,-5.9843,-5.9886,-5.9897,-5.9894,-5.9852,-5.9916,-5.9939,-6.0115,-6.0239,-5.9999,-6.001,-6.0583,-6.0596,-6.0608,-6.08,0,0,0,0,0,0,-5.9591,-5.9629,-5.9717,-5.9754,-5.9786,-6.0026,-5.9856,-5.9851,-5.9907,-5.989,-5.9939,-5.994,-5.9912,-6.0097,-6.0127,-6.0252,-6.002,-6.0571,-6.0589,-6.0604,-6.0783,-6.0818,-6.0849,0,0,0,0,0,-5.9579,-5.9768,-5.9723,-5.9753,-5.9897,-6.0033,-6.0051,-6.0013,-5.9918,-6.0008,-6.0014,-5.9938,-6.0221,-6.0117,-6.0149,-6.0279,-6.0563,-6.0584,-6.0603,-6.0768,-6.0811,-6.0848,0,0,0,0,0,0,-5.9748,-5.9772,-5.9722,-5.9928,-5.9979,-6.0008,-6.012,-6.006,-6.0141,-6.0122,-6.0073,-6.0085,-6.0273,-6.0294,-6.0177,-6.0511,-6.0377,-6.0404,-6.0491,-6.0532,-6.0564,-6.0556,-6.003,0,0,0,0,0,-5.9808,-5.9915,-5.9931,-6.0112,-6.014,-6.0126,-6.0184,-6.015,-6.0202,-6.0224,-6.0243,-6.0298,-6.0399,-6.0467,-6.056,-6.0785,-6.0794,-6.089,-6.0923,-6.095,-6.0975,-6.1096,-6.1139,-6.0678,-6.0678,-6.0677,0,0,-5.9936,-5.9962,-6.0033,-6.0146,-6.0182,-6.0295,-6.0145,-6.0272,-6.0356,-6.0243,-6.041,-6.0427,-6.0485,-6.0687,-6.0777,-6.071,-6.1104,-6.0975,-6.0997,-6.1007,-6.112,-6.1164,-6.1203,-6.0691,-6.0689,-6.0687,0,0,-6.0225,-6.0256,-6.0409,-6.0448,-6.0503,-6.0493,-6.053,-6.0568,-6.0574,-6.0741,-6.0659,-6.0759,-6.0934,-6.0979,-6.1024,-6.1332,-6.1265,-6.1364,-6.1536,-6.1654,-6.1691,-6.1723,-6.1833,-6.1873,-6.1388,-6.1388,-6.1388,0,-6.0377,-6.0543,-6.0496,-6.0628,-6.0681,-6.0583,-6.0739,-6.0779,-6.0864,-6.0903,-6.0826,-6.1043,-6.1075,-6.1286,-6.1361,-6.1401,-6.1443,-6.1358,-6.1689,-6.1721,-6.175,-6.1854,-6.1896,-6.14,-6.1398,-6.1397,-6.1396,0,-6.0727,-6.0844,-6.0961,-6.1043,-6.1109,-6.1253,-6.1229,-6.1302,-6.1263,-6.1261,-6.1433,-6.1468,-6.1566,-6.1614,-6.1578,-6.1821,-6.1777,-6.1696,-6.156,-6.1806,-6.1904,-6.1943,-6.1416,-6.1412,-6.1409,-6.1406,0,0,-6.1126,-6.118,-6.1224,-6.126,-6.1314,-6.1404,-6.1544,-6.1639,-6.1702,-6.1764,-6.1881,-6.2031,-6.1956,-6.2008,-6.1976,-6.208,-6.2322,-6.1985,-6.1986,-6.2047,-6.2592,-6.2653,-6.27,-6.2277,-6.2285,-6.2291,-6.2587,0,-6.1416,-6.1656,-6.1618,-6.1851,-6.1958,-6.1866,-6.1988,-6.2036,-6.2038,-6.2131,-6.2134,-6.2241,-6.2133,-6.2164,-6.2263,-6.2271,-6.243,-6.2249,-6.2387,-6.2393,-6.2376,-6.2751,-6.2816,-6.3094,-6.2625,-6.2632,-6.2636,0,-6.1787,-6.186,-6.2103,-6.214,-6.2183,-6.2294,-6.2377,-6.2467,-6.252,-6.2514,-6.2572,-6.2521,-6.2662,-6.2524,-6.2718,-6.2596,-6.265,-6.2663,-6.2673,-6.2685,-6.253,-6.2774,-6.3182,-6.3224,-6.2696,-6.2691,-6.2687,0,-6.2054,-6.2214,-6.2379,-6.2413,-6.246,-6.254,-6.2564,-6.2608,-6.2668,-6.2742,-6.278,-6.2871,-6.2921,-6.2993,-6.2969,-6.287,-6.3169,-6.3028,-6.317,-6.3171,-6.3237,-6.3233,-6.3661,-6.3272,-6.3272,-6.3271,-6.327,0,-6.2382,-6.2534,-6.25,-6.2602,-6.277,-6.2726,-6.2895,-6.2908,-6.2948,-6.3052,-6.2979,-6.3079,-6.304,-6.3138,-6.312,-6.3285,-6.3308,-6.3308,-6.3302,-6.3315,-6.3315,-6.335,-6.3331,-6.3282,-6.3279,-6.3277,-6.3275,0,-6.2709,-6.2692,-6.2867,-6.2897,-6.2908,-6.3031,-6.3058,-6.3154,-6.315,-6.3284,-6.3312,-6.3308,-6.3419,-6.3401,-6.3526,-6.3513,-6.3719,-6.3689,-6.3701,-6.3694,-6.3837,-6.3824,-6.4302,-6.4363,-6.3935,-6.3939,-6.3942,0,-6.292,-6.3034,-6.3077,-6.314,-6.3169,-6.3273,-6.3333,-6.3295,-6.336,-6.3429,-6.3518,-6.3622,-6.3704,-6.3887,-6.3895,-6.399,-6.3962,-6.4123,-6.3976,-6.3986,-6.3965,-6.3959,-6.397,-6.4153,-6.4157,-6.4161,-6.4165,0,-6.3295,-6.3281,-6.3369,-6.3456,-6.3528,-6.3595,-6.3654,-6.3711,-6.3678,-6.3756,-6.3868,-6.3931,-6.4057,-6.4163,-6.4252,-6.4278,-6.4218,-6.4211,-6.4249,-6.4264,-6.4266,-6.4267,-6.3781,-6.42,-6.4197,-6.4194,-6.4192,-6.4191,-6.3571,-6.3668,-6.3713,-6.3814,-6.3854,-6.3912,-6.4004,-6.4011,-6.4103,-6.4201,-6.4174,-6.4301,-6.4352,-6.4464,-6.45,-6.4601,-6.4541,-6.4596,-6.461,-6.4625,-6.4642,-6.425,-6.4617,-6.4616,-6.4615,-6.4614,-6.4613,0,-6.3943,-6.3967,-6.406,-6.4144,-6.4225,-6.4158,-6.422,-6.4292,-6.4405,-6.4456,-6.4537,-6.4667,-6.4768,-6.4785,-6.4882,-6.4959,-6.4934,-6.4986,-6.498,-6.4988,-6.4689,-6.4647,-6.5005,-6.5005,-6.5005,-6.5005,-6.5005,-6.5005,-6.4146,-6.4307,-6.4299,-6.448,-6.4504,-6.4626,-6.4668,-6.4721,-6.4761,-6.4908,-6.4992,-6.5001,-6.5039,-6.5138,-6.5229,-6.5232,-6.5271,-6.5335,-6.5327,-6.5048,-6.5009,-6.4971,-6.4931,-6.5343,-6.5344,-6.5616,-6.5619,-6.5621]},{"header":{"parameterUnit":"m.s-1","parameterCategory":1,"la1":30.2991,"la2":30.254,"lo1":-89.0895,"lo2":-89.0444,"dy":0.0017,"dx":0.0017,"nx":28,"ny":28,"refTime":"2025-01-13T03:00:00:Z","depth":0,"parameterNumber":3,"parameterNumberName":"V-component_of_WINDS"},"data":[0,0,0,0,0,0,0,0,0,0,0,0,0,0,0,0,0,0,0,0,0,0,0,0,0,0,0,0,0,0,0,0,0,0,0,0,0,0,0,0,0,0,0,0,0,0,0,0,0,0,0,0,0,0,0,0,0,0,-2.4806,-2.4806,0,-2.4765,-2.4765,-2.4764,-2.4679,-2.4677,-2.4675,-2.4673,-2.4633,-2.4634,-2.4634,0,0,0,0,0,0,0,0,0,0,0,0,0,-2.481,-2.481,-2.4806,-2.4806,-2.4805,-2.4765,-2.4765,-2.4764,-2.4679,-2.4677,-2.4675,-2.4673,-2.4633,-2.4634,-2.4634,0,0,0,0,0,0,0,0,0,0,0,0,0,-2.4793,-2.481,-2.4806,-2.4758,-2.4753,-2.4765,-2.4765,-2.4764,-2.4679,-2.4677,-2.4674,-2.4672,-2.4633,-2.4634,-2.4634,-2.4691,0,0,-2.4637,-2.4637,0,0,0,0,0,0,0,0,-2.4794,-2.4793,-2.4765,-2.4761,-2.4756,-2.4724,-2.4751,-2.474,-2.468,-2.4707,-2.4673,-2.467,-2.4666,-2.4664,-2.4662,-2.4689,-2.4688,-2.4637,-2.4637,-2.4638,-2.4638,0,0,0,0,0,0,0,-2.4795,-2.4794,-2.479,-2.4765,-2.4759,-2.4738,-2.4732,-2.4749,-2.4702,-2.4705,-2.4698,-2.4695,-2.4663,-2.4661,-2.466,-2.4687,-2.4637,-2.4638,-2.4638,-2.4638,-2.4757,-2.4759,0,0,0,0,0,0,-2.4803,-2.4795,-2.4791,-2.4789,-2.4769,-2.474,-2.4734,-2.4737,-2.4701,-2.4693,-2.4697,-2.4691,-2.4661,-2.4659,-2.4658,-2.4721,-2.4638,-2.4639,-2.4639,-2.4754,-2.4757,-2.476,0,0,0,0,0,0,-2.4804,-2.4804,-2.4793,-2.479,-2.4787,-2.4742,-2.4747,-2.4738,-2.4736,-2.4695,-2.4686,-2.4704,-2.4659,-2.4657,-2.4683,-2.4719,-2.4639,-2.464,-2.4751,-2.4755,-2.4759,-2.4849,0,0,0,0,0,0,-2.4804,-2.4804,-2.4826,-2.4791,-2.4788,-2.4819,-2.4749,-2.4739,-2.4737,-2.4729,-2.47,-2.4692,-2.4657,-2.4682,-2.4684,-2.4718,-2.464,-2.4748,-2.4753,-2.4757,-2.4842,-2.4855,-2.4866,0,0,0,0,0,-2.4804,-2.4854,-2.4827,-2.4827,-2.4814,-2.4821,-2.4819,-2.4777,-2.4741,-2.4762,-2.4735,-2.4693,-2.4714,-2.4686,-2.4687,-2.4722,-2.4745,-2.4751,-2.4757,-2.4837,-2.4853,-2.4866,0,0,0,0,0,0,-2.4895,-2.4848,-2.4819,-2.4858,-2.4844,-2.4807,-2.4832,-2.4795,-2.4791,-2.4784,-2.4731,-2.4726,-2.4758,-2.4742,-2.4711,-2.4774,-2.4723,-2.4729,-2.4783,-2.4798,-2.481,-2.4813,-2.4641,0,0,0,0,0,-2.4919,-2.4929,-2.4888,-2.4926,-2.4921,-2.4878,-2.4879,-2.4847,-2.4831,-2.4825,-2.48,-2.4786,-2.4789,-2.4792,-2.4793,-2.4839,-2.4831,-2.4864,-2.4876,-2.4886,-2.4892,-2.4914,-2.4928,-2.478,-2.478,-2.478,0,0,-2.497,-2.4946,-2.4955,-2.4944,-2.4929,-2.494,-2.4873,-2.4888,-2.4896,-2.4827,-2.485,-2.4831,-2.4811,-2.4847,-2.4862,-2.4835,-2.4931,-2.4893,-2.4902,-2.4903,-2.4921,-2.4935,-2.4948,-2.4784,-2.4783,-2.4782,0,0,-2.5068,-2.5051,-2.508,-2.5066,-2.5044,-2.5015,-2.5022,-2.4989,-2.4974,-2.4995,-2.4944,-2.4951,-2.4958,-2.4946,-2.4941,-2.5031,-2.4992,-2.5033,-2.5096,-2.5117,-2.5129,-2.5139,-2.5171,-2.5183,-2.5039,-2.5039,-2.5039,0,-2.5134,-2.5149,-2.5101,-2.5118,-2.5114,-2.5051,-2.508,-2.5069,-2.5049,-2.5047,-2.5017,-2.5023,-2.5006,-2.5037,-2.5058,-2.5056,-2.5062,-2.5037,-2.5131,-2.5141,-2.5149,-2.5179,-2.5191,-2.5044,-2.5044,-2.5043,-2.5043,0,-2.523,-2.5241,-2.5267,-2.5248,-2.5247,-2.527,-2.5225,-2.523,-2.5197,-2.5171,-2.5192,-2.5169,-2.5163,-2.5168,-2.5137,-2.5194,-2.5178,-2.5141,-2.5088,-2.5169,-2.5196,-2.5207,-2.5052,-2.505,-2.5048,-2.5047,0,0,-2.5387,-2.5338,-2.5349,-2.5339,-2.5308,-2.5315,-2.5335,-2.5328,-2.5332,-2.532,-2.5335,-2.534,-2.5305,-2.5299,-2.5265,-2.5284,-2.5356,-2.5244,-2.5243,-2.5266,-2.5417,-2.5446,-2.546,-2.533,-2.5332,-2.5333,-2.5418,0,-2.5478,-2.5509,-2.5465,-2.5506,-2.5514,-2.5453,-2.5469,-2.5453,-2.5428,-2.5431,-2.5403,-2.5408,-2.5361,-2.5356,-2.5372,-2.5344,-2.5386,-2.5337,-2.5343,-2.5344,-2.5351,-2.5474,-2.5505,-2.5586,-2.5428,-2.543,-2.5431,0,-2.559,-2.5581,-2.5623,-2.5587,-2.5589,-2.5605,-2.5594,-2.5598,-2.5577,-2.5557,-2.5549,-2.5509,-2.5525,-2.5473,-2.5494,-2.5462,-2.5461,-2.5448,-2.545,-2.5449,-2.5393,-2.5477,-2.5611,-2.5624,-2.5448,-2.5446,-2.5445,0,-2.57,-2.5698,-2.5722,-2.5715,-2.5675,-2.5687,-2.5671,-2.5647,-2.5645,-2.5635,-2.5633,-2.5625,-2.5622,-2.5616,-2.5575,-2.5541,-2.5601,-2.5546,-2.5585,-2.5586,-2.5601,-2.5601,-2.5738,-2.56,-2.56,-2.56,-2.56,0,-2.5807,-2.5835,-2.577,-2.5785,-2.5814,-2.5762,-2.5792,-2.5769,-2.5748,-2.5757,-2.5703,-2.5713,-2.5657,-2.566,-2.5628,-2.5649,-2.5648,-2.5633,-2.5624,-2.5638,-2.564,-2.5638,-2.5631,-2.5603,-2.5602,-2.5602,-2.5601,0,-2.5935,-2.5893,-2.5915,-2.5874,-2.5864,-2.5887,-2.5852,-2.5863,-2.5834,-2.5846,-2.5846,-2.58,-2.58,-2.5758,-2.5751,-2.5728,-2.5765,-2.5745,-2.5772,-2.5766,-2.5807,-2.5804,-2.5948,-2.5964,-2.5816,-2.5817,-2.5819,0,-2.6007,-2.6026,-2.5987,-2.5988,-2.5974,-2.5978,-2.5975,-2.5924,-2.5923,-2.5898,-2.5913,-2.5909,-2.5903,-2.5908,-2.5874,-2.5867,-2.5847,-2.5898,-2.5846,-2.5859,-2.5848,-2.5848,-2.5849,-2.591,-2.5912,-2.5913,-2.5914,0,-2.6138,-2.6116,-2.6113,-2.6103,-2.61,-2.609,-2.6076,-2.608,-2.6024,-2.6026,-2.6025,-2.6021,-2.6012,-2.6009,-2.5995,-2.5978,-2.5937,-2.593,-2.5939,-2.5954,-2.5969,-2.5961,-2.5802,-2.5928,-2.5926,-2.5926,-2.5925,-2.5924,-2.624,-2.6254,-2.6228,-2.6226,-2.6209,-2.6197,-2.6205,-2.6176,-2.6174,-2.6163,-2.6132,-2.6137,-2.6112,-2.609,-2.6076,-2.6079,-2.6054,-2.6066,-2.607,-2.6074,-2.6081,-2.5967,-2.6076,-2.6076,-2.6075,-2.6075,-2.6075,0,-2.6369,-2.6348,-2.6347,-2.6328,-2.6326,-2.6286,-2.6267,-2.6269,-2.6273,-2.6254,-2.6248,-2.6247,-2.6243,-2.6207,-2.6199,-2.6208,-2.6188,-2.6207,-2.6206,-2.6203,-2.6105,-2.6098,-2.6223,-2.6223,-2.6223,-2.6223,-2.6223,-2.6223,-2.6436,-2.6456,-2.643,-2.6442,-2.642,-2.6423,-2.6416,-2.6404,-2.6388,-2.6389,-2.6385,-2.6361,-2.6334,-2.6323,-2.6317,-2.6307,-2.6306,-2.6332,-2.6315,-2.6224,-2.621,-2.6197,-2.619,-2.6332,-2.6332,-2.6413,-2.6414,-2.6414]}]]